Regional Weather Roundup
Issued by NWS

Home | Current Version | Previous Version | Text Only | Print | Product List | Glossary Off
Versions: 1 2 3 4 5 6 7 8 9 10 11 12 13 14 15 16 17 18 19 20 21 22 23 24 25 26 27 28 29 30 31 32 33 34 35 36 37 38 39 40 41 42 43 44 45 46 47 48 49 50

000
ASUS45 KPSR 291910
RWRAZ

ARIZONA HOURLY REGIONAL WEATHER ROUNDUP
NATIONAL WEATHER SERVICE PHOENIX AZ
1200 PM MST FRI APR 29 2016

NOTE: FAIR INDICATES FEW OR NO CLOUDS BELOW 12,000 FEET WITH NO
SIGNIFICANT WEATHER AND/OR OBSTRUCTIONS TO VISIBILITY.

AZZ001>003-036-292000-
NORTHWEST ARIZONA

CITY           SKY/WX    TMP DP  RH WIND       PRES   REMARKS
BULLHEAD CITY  SUNNY     77  45  31 W5        29.90F
KINGMAN        SUNNY     64  44  48 VRB6      29.94F
$$

AZZ004>008-015-016-018-292000-
NORTH CENTRAL ARIZONA

CITY           SKY/WX    TMP DP  RH WIND       PRES   REMARKS
GRAND CANYON   PTSUNNY   48  34  58 W12G18    29.95F
WILLIAMS       RAIN      43  37  81 W8G17     30.06R
PRESCOTT       PTSUNNY   58  34  40 VRB7      29.94F
FLAGSTAFF      PTSUNNY   45  39  79 SW9       29.96F
PAYSON         CLOUDY    57  34  41 W10G20    29.98S
PAGE           SUNNY     58  37  45 MISG      29.86F
$$

AZZ009>014-017-292000-
NORTHEAST ARIZONA

CITY           SKY/WX    TMP DP  RH WIND       PRES   REMARKS
WINSLOW        CLOUDY    61  31  32 W14G25    29.89F
SAINT JOHNS    CLOUDY    53  29  39 W20G28    29.90F
WINDOW ROCK    LGT RAIN  49  30  48 W15       29.90F
SHOW LOW       CLOUDY    48  28  46 S16G28    29.96S
$$

AZZ023-292000-
GREATER PHOENIX AREA

CITY           SKY/WX    TMP DP  RH WIND       PRES   REMARKS
PHOENIX        MOSUNNY   74  38  27 VRB6      29.87F
BUCKEYE        SUNNY     75  37  25 SW8       29.90S
GLENDALE       MOSUNNY   73  37  27 CALM      29.90F
LUKE AFB       SUNNY     74  40  29 SW10      29.87F
DEER VALLEY    SUNNY     72  38  29 S6        29.88F
SCOTTSDALE     SUNNY     73  37  27 SE5       29.90F
MESA-FALCON    PTSUNNY  N/A N/A N/A S12       29.86F
MESA-GATEWAY   MOSUNNY   72  37  28 SW5       29.90F
CHANDLER       MOSUNNY   73  37  27 S10       29.88F
$$

AZZ027-028-292000-
SOUTHWEST MARICOPA COUNTY AND PINAL COUNTY

CITY           SKY/WX    TMP DP  RH WIND       PRES   REMARKS
CASA GRANDE    SUNNY     73  37  27 W8        29.91F
GILA BEND      SUNNY     76  36  23 W12G21    29.88F
$$

AZZ503-504-507>509-292000-
SOUTHEAST ARIZONA

CITY           SKY/WX    TMP DP  RH WIND       PRES   REMARKS
TUCSON         SUNNY     71  32  23 SW6G17    29.96S
DAVIS-MONTHAN  MOSUNNY   69  33  26 W12       29.94F
RYAN FIELD     SUNNY     72  32  23 NW10      29.95F
NOGALES        SUNNY     65  28  24 CALM      29.97F
SIERRA VISTA   MOSUNNY   64  27  24 W8G18     29.99S
DOUGLAS        SUNNY     67  25  20 W14G22    29.96F
SAFFORD        PTSUNNY   67  34  29 NW20G29   29.90F
$$

AZZ020-021-025-026-031-292000-
SOUTHWEST ARIZONA

CITY           SKY/WX    TMP DP  RH WIND       PRES   REMARKS
YUMA           MOSUNNY   79  43  27 SW10      29.91F
$$

CAZ031-033-041-043-047-048-061-292000-
SOUTHERN CALIFORNIA

CITY           SKY/WX    TMP DP  RH WIND       PRES   REMARKS
DOWNTOWN L.A.  MOSUNNY   68  51  54 W5        30.02F
L.A. AIRPORT   PTSUNNY   64  50  60 SW14      30.04S
SAN DIEGO      MOSUNNY   68  48  48 S9        30.04F
BURBANK        MOSUNNY   65  47  52 S7        30.01F
ONTARIO        MOSUNNY   65  44  46 CALM      30.02F
RIVERSIDE      MOSUNNY   66  45  46 S5        30.02F
PALM SPRINGS   SUNNY     79  41  25 N13       29.90F
EL CENTRO NAS  MOSUNNY   80  35  19 VRB7      29.90F
IMPERIAL       SUNNY     81  38  21 S8        29.89F
BLYTHE         SUNNY     79  38  22 VRB5      29.87F
NEEDLES        SUNNY     76  43  30 VRB3      29.87F
$$

NVZ020-UTZ003-292000-
SOUTHERN NEVADA-UTAH

CITY           SKY/WX    TMP DP  RH WIND       PRES   REMARKS
LAS VEGAS      MOSUNNY   71  40  32 E8        29.86F
SALT LAKE CITY PTSUNNY   53  33  46 CALM      29.89F
$$

NMZ009-TXZ055-292000-
NEW MEXICO-WEST TEXAS

CITY           SKY/WX    TMP DP  RH WIND       PRES   REMARKS
ALBUQUERQUE    CLOUDY    54  27  35 SW7       29.83F
EL PASO        MOSUNNY   68  18  14 W12G26    29.87F
$$


........................KEY........................
SKY/WX - SKY CONDITION/WEATHER
TMP    - TEMPERATURE IN FAHRENHEIT
DP     - DEW POINT IN FAHRENHEIT
RH     - RELATIVE HUMIDITY IN PERCENT
WIND   - DIRECTION AND SPEED IN MILES PER HOUR (MPH)
VRB    - VARIABLE WIND DIRECTION
PRES   - MEAN SEA LEVEL PRESSURE IN INCHES OF MERCURY
         F - FALLING PRESSURE   R - RISING PRESSURE
         S - STEADY PRESSURE
VSB    - VISIBILITY IN MILES
HX     - HEAT INDEX IN FAHRENHEIT
WCI    - WIND CHILL INDEX IN FAHRENHEIT
TC     - TEMPERATURE IN CELSIUS WHICH IS ALSO KNOWN AS
         TEMPERATURE IN CENTIGRADE
AFB    - AIR FORCE BASE
         LUKE AFB IS LUKE AIR FORCE BASE
         DAVIS-MONTHAN IS DAVIS-MONTHAN AIR FORCE BASE
NAS    - NAVAL AIR STATION
         EL CENTRO NAS IS EL CENTRO NAVAL AIR STATION
N/A    - NOT AVAILABLE




USA.gov is the U.S. government's official web portal to all federal, state and local government web resources and services.